Weather History for St. Joseph, MO

Change the Weather History Date:

Thursday, May 10, 2012

  Actual Average Record
Temperature  
Mean Temperature 64 °F 62 °F  
Max Temperature 81 °F 73 °F 93 °F (2011)
Min Temperature 47 °F 51 °F 36 °F (1989)
Degree Days  
Heating Degree Days 1 5  
Month to date heating degree days 12 58  
Since 1 July heating degree days 4226 5396  
Cooling Degree Days 0 2  
Month to date cooling degree days 58 13  
Year to date cooling degree days 142 34  
Growing Degree Days 13 (Base 50)    
Moisture  
Dew Point 49 °F    
Average Humidity 65    
Maximum Humidity 93    
Minimum Humidity 36    
Precipitation  
Precipitation 0.00 in 0.18 in 1.94 in (2010)
Month to date precipitation 1.11 1.84  
Year to date precipitation 10.02 9.37  
Sea Level Pressure  
Sea Level Pressure 29.91 in    
Wind  
Wind Speed 9 mph (South)    
Max Wind Speed 20 mph    
Max Gust Speed 24 mph    
Visibility 10 miles    
Events      
T = Trace of Precipitation, MM = Missing Value Source: NWS Daily Summary

Daily Weather History Graph

Daily Weather History Graph

Search for Another Location

Airport:

Trip Planner

Search our weather history database for the weather conditions in past years. The results will help you decide how hot, cold, wet, or windy it might be!

Date:

Astronomy

May. 10, 2012 Rise Set
Actual Time 6:09 AM CDT 8:23 PM CDT
Civil Twilight 5:39 AM CDT 8:53 PM CDT
Nautical Twilight 5:02 AM CDT 9:30 PM CDT
Astronomical Twilight 4:21 AM CDT 10:11 PM CDT
Moon 12:22 AM CDT (5/10) 10:34 AM CDT (5/10)
Length of Visible Light 15h 14m
Length of Day
14h 13m
Waning Gibbous, 73% of the Moon is Illuminated
May 10
Waning Gibbous
May 12
Last Quarter
May 20
New
May 28
First Quarter
Jun 4
Full

Hourly Weather History & Observations

Time (CDT) Temp. Dew Point Humidity Pressure Visibility Wind Dir Wind Speed Gust Speed Precip Events Conditions
12:53 AM 53.1 °F 46.0 °F 77% 29.96 in 10.0 mi SE 3.5 mph - N/A   Clear
1:53 AM 53.1 °F 45.0 °F 74% 29.96 in 10.0 mi Calm Calm - N/A   Clear
2:53 AM 50.0 °F 46.0 °F 86% 29.94 in 10.0 mi Calm Calm - N/A   Clear
3:53 AM 48.9 °F 46.0 °F 90% 29.95 in 10.0 mi Calm Calm - N/A   Clear
4:53 AM 48.0 °F 44.1 °F 86% 29.96 in 10.0 mi Calm Calm - N/A   Clear
5:53 AM 46.9 °F 44.1 °F 90% 29.96 in 10.0 mi Calm Calm - N/A   Clear
6:53 AM 53.1 °F 46.9 °F 80% 29.96 in 10.0 mi Calm Calm - N/A   Clear
7:53 AM 57.0 °F 48.9 °F 74% 29.97 in 10.0 mi SSE 4.6 mph - N/A   Clear
8:53 AM 63.0 °F 48.9 °F 60% 29.97 in 10.0 mi South 6.9 mph - N/A   Clear
9:53 AM 68.0 °F 48.0 °F 49% 29.95 in 10.0 mi South 11.5 mph - N/A   Clear
10:53 AM 71.1 °F 48.0 °F 44% 29.94 in 10.0 mi SSE 10.4 mph - N/A   Clear
11:53 AM 73.9 °F 48.0 °F 40% 29.92 in 10.0 mi South 11.5 mph 19.6 mph N/A   Clear
12:53 PM 75.9 °F 48.0 °F 37% 29.90 in 10.0 mi South 16.1 mph 21.9 mph N/A   Clear
1:53 PM 79.0 °F 50.0 °F 36% 29.88 in 10.0 mi South 15.0 mph 24.2 mph N/A   Clear
2:53 PM 79.0 °F 51.1 °F 38% 29.86 in 10.0 mi SSE 11.5 mph 21.9 mph N/A   Clear
3:53 PM 79.0 °F 50.0 °F 36% 29.85 in 10.0 mi South 12.7 mph 24.2 mph N/A   Clear
4:53 PM 80.1 °F 52.0 °F 38% 29.84 in 10.0 mi South 15.0 mph 23.0 mph N/A   Clear
5:53 PM 79.0 °F 52.0 °F 39% 29.85 in 10.0 mi South 17.3 mph - N/A   Clear
6:53 PM 78.1 °F 53.1 °F 42% 29.84 in 10.0 mi South 15.0 mph - N/A   Clear
7:53 PM 75.0 °F 53.1 °F 46% 29.85 in 10.0 mi South 11.5 mph - N/A   Clear
8:53 PM 72.0 °F 53.1 °F 51% 29.85 in 10.0 mi SSE 11.5 mph - N/A   Clear
9:53 PM 68.0 °F 54.0 °F 61% 29.88 in 10.0 mi South 8.1 mph - N/A   Clear
10:53 PM 68.0 °F 54.0 °F 61% 29.89 in 10.0 mi South 9.2 mph - N/A   Clear
11:53 PM 66.0 °F 54.0 °F 65% 29.89 in 10.0 mi South 6.9 mph - N/A   Clear